Regional Weather Roundup
Issued by NWS

Home | Current Version | Previous Version | Text Only | Print | Product List | Glossary Off
Versions: 1 2 3 4 5 6 7 8 9 10 11 12 13 14 15 16 17 18 19 20 21 22 23 24 25 26 27 28 29 30 31 32 33 34 35 36 37 38 39 40 41 42 43 44 45 46 47 48 49 50

698
ASUS43 KFSD 271310
RWRSD

WEATHER ROUNDUP FOR SOUTH DAKOTA
NATIONAL WEATHER SERVICE SIOUX FALLS SD
800 AM CDT SAT MAY 27 2017

NOTE: "FAIR" INDICATES FEW OR NO CLOUDS BELOW 12,000 FEET WITH NO
SIGNIFICANT WEATHER AND/OR OBSTRUCTIONS TO VISIBILITY.


SDZ001>005-009-010-012>017-271400-
NORTHWEST AND NORTH CENTRAL SOUTH DAKOTA

CITY           SKY/WX    TMP DP  RH WIND       PRES   REMARKS
BUFFALO          N/A     48  42  80 W9        29.91S
FAITH            N/A     52  42  69 W14       29.95S
MOBRIDGE       PTSUNNY   59  44  57 SW6       29.89S
$$

SDZ012>016-024>037-041>051-057-063-072>074-271400-
SOUTHWEST AND SOUTH CENTRAL SOUTH DAKOTA

CITY           SKY/WX    TMP DP  RH WIND       PRES   REMARKS
RAPID CTY ARPT CLOUDY    50  46  86 CALM      30.00R
PIERRE         CLOUDY    54  50  86 SW8       29.96R
CUSTER         CLOUDY    44  38  79 NW3       30.04R
ELLSWORTH AFB  CLOUDY    50  48  92 W3        30.00R
PHILIP         CLOUDY    52  51  97 SW3       29.98R
PINE RIDGE     CLOUDY    51  50  96 W5        30.01R
SPEARFISH      FAIR      52  41  66 W12       30.02S
WINNER         CLOUDY    56  51  84 W7        29.97S
$$

SDZ004>011-016>023-039-040-271400-
NORTHEAST SOUTH DAKOTA

CITY           SKY/WX    TMP DP  RH WIND       PRES   REMARKS
ABERDEEN       CLOUDY    60  44  55 SW8       29.89F
WATERTOWN      PTSUNNY   54  48  80 CALM      29.91R
BROOKINGS      CLOUDY    54  51  90 S5        29.93R
SISSETON         N/A     62  48  60 W8        29.86S
$$

SDZ017-020-022-023-036>040-048>070-271400-
SOUTHEAST SOUTH DAKOTA

CITY           SKY/WX    TMP DP  RH WIND       PRES   REMARKS
SIOUX FALLS    LGT RAIN  54  52  93 W3        29.94R
HURON          CLOUDY    59  51  75 W3        29.91S
CHAMBERLAIN    CLOUDY    59  52  77 W8        29.94F
MITCHELL       LGT RAIN  57  51  80 NE3       29.93R
YANKTON        CLOUDY    54  53  97 SE3       29.94R
$$

ABBREVIATIONS USED IN REMARKS
   TC - TEMPERATURE IN CELSIUS
  WCI - WIND CHILL INDEX
   HX - HEAT INDEX
  VSB - VISIBILITY





USA.gov is the U.S. government's official web portal to all federal, state and local government web resources and services.